Location: Unspecified
(43.4354°N, 0.0000°E)
Time: 13:29:13
(UTC+00:00)

A-11 Canister half - Pass Details

Date: 21 June 2019
Orbit: 1514 x 1686 km, 47.2° (Epoch: 17 August)

Event Time Altitude Azimuth Distance (km) Brightness Sun altitude
Rises 13:54:29 0° 276° (W) 4,853 12.0 59.4°
Reaches altitude 10° 13:57:41 10° 279° (W) 3,844 11.6 58.9°
Maximum altitude 14:07:27 71° 3° (N) 1,649 10.0 57.4°
Drops below altitude 10° 14:16:51 10° 88° (E) 3,711 10.8 55.8°
Sets 14:19:53 0° 90° (E) 4,679 11.2 55.3°
